Flag for U.S.A. Weather past 2 weeks in Hollywood, Florida, U.S.A.

Now
80 °F

Thunderstorms. Broken clouds.


Feels Like: 85 °F
Forecast: 74 / 83 °F
Wind: No wind

Location: Fort Lauderdale / Hollywood International Airport

Current Time: Sep 19, 2014 at 4:05:22 PM

Latest Report: Sep 19, 2014 at 2:53 PM


Visibility: 10 mi

Pressure: 29.92 "Hg

Humidity: 85%

Dew point: 75 °F

Location of HollywoodLocation

Historic Weather in Hollywood — Graph

°F

Hollywood temperature yesterday

Maximum temperature yesterday: 89 °F (at 12:53 PM)
Minimum temperature yesterday: 78 °F (at 7:53 PM)
Average temperature yesterday: 82 °F

Past Weeks' High & Low Weather Summary

 TemperatureHumidityPressure
High91 °F (Sep 17, 12:53 PM)100% (Sep 13, 3:53 AM)30.15 "Hg (Sep 13, 3:53 AM)
Low74 °F (Sep 12, 6:53 AM)49% (Sep 17, 2:53 PM)29.86 "Hg (Sep 18, 4:53 PM)
Average83 °F73%30.00 "Hg
* Reported Sep 4 2:53 PM — Sep 19 2:53 PM, Hollywood, Weather by CustomWeather, © 2014

Note: Actual official high and low records may vary slightly from our data, if they occured in-between our weather recording intervals... More about our weather records

Advertising

Hollywood weather history for previous 24 hours

 ConditionsComfort  
Time TempWeatherWind HumidityBarometerVisibility
2:53 PM
Sep 19
80 °FThunderstorms. Broken clouds.No wind85%29.92 "Hg10 mi
1:53 PM80 °FThunderstorms. More clouds than sun.No wind81%29.93 "Hg10 mi
12:53 PM80 °FThunderstorms. Partly sunny.7 mph79%29.96 "Hg7 mi
11:59 AM83 °FThunderstorms. Partly sunny.16 mph74%29.96 "Hg10 mi
10:53 AM85 °FBroken clouds.6 mph65%29.95 "Hg10 mi
9:53 AM83 °FBroken clouds.6 mph74%29.95 "Hg10 mi
8:53 AM82 °FPartly sunny.3 mph79%29.96 "Hg10 mi
7:53 AM79 °FPassing clouds.3 mph88%29.93 "Hg10 mi
6:53 AM78 °FPassing clouds.No wind90%29.93 "Hg10 mi
5:53 AM78 °FClear.No wind90%29.90 "Hg10 mi
4:53 AM78 °FClear.No wind90%29.90 "Hg10 mi
3:53 AM78 °FClear.No wind90%29.88 "Hg10 mi
2:53 AM78 °FPassing clouds.No wind87%29.90 "Hg10 mi
1:53 AM79 °FPassing clouds.No wind88%29.91 "Hg10 mi
12:53 AM80 °FPassing clouds.No wind87%29.92 "Hg10 mi
11:53 PM
Sep 18
79 °FPassing clouds.No wind90%29.92 "Hg10 mi
10:53 PM79 °FPassing clouds.No wind88%29.93 "Hg10 mi
9:53 PM79 °FPartly cloudy.No wind88%29.91 "Hg10 mi
9:02 PM78 °FLight rain. Mostly cloudy.3 mph93%29.92 "Hg10 mi
8:53 PM78 °FThunderstorms. Overcast.5 mph90%29.91 "Hg10 mi
7:53 PM78 °FThunderstorms. Fog.15 mph90%29.90 "Hg5 mi
6:53 PM84 °FBroken clouds.10 mph74%29.86 "Hg10 mi
5:53 PM85 °FLight rain. Mostly cloudy.10 mph72%29.87 "Hg10 mi
4:53 PM84 °FBroken clouds.14 mph72%29.86 "Hg10 mi
Weather by CustomWeather, © 2014

See weather overviewHow to use our weather pages